"Time","409204C","409204C","409204C","409204C"
"and",100.00,400.00,3000.00,3500.00
"Date","Water Level (m)","Discharge (ML/Day)","Cond @25 degC(uS/cm)","Water Temp (Deg C)"
"","Mean","Mean","Mean","Mean"
09:00:00 23/09/1992,,,,
09:00:00 24/09/1992,,,,13.098
09:00:00 25/09/1992,,,,12.917
09:00:00 26/09/1992,,,,12.568
09:00:00 27/09/1992,,,,12.858
09:00:00 28/09/1992,,,,13.318
09:00:00 29/09/1992,,,,13.436
09:00:00 30/09/1992,,,,13.657
09:00:00 01/10/1992,,,,13.68
09:00:00 02/10/1992,,,,14.021
09:00:00 03/10/1992,,,,14.424
09:00:00 04/10/1992,,,,15.099
09:00:00 05/10/1992,,,,15.451
09:00:00 06/10/1992,,,,15.478
09:00:00 07/10/1992,,,,15.578
09:00:00 08/10/1992,,,,16.264
09:00:00 09/10/1992,,,,16.223
09:00:00 10/10/1992,,,,15.914
09:00:00 11/10/1992,,,,15.866
09:00:00 12/10/1992,,,,15.863
09:00:00 13/10/1992,,,,16.417
09:00:00 14/10/1992,,,,17.346
09:00:00 15/10/1992,,,,18.354
09:00:00 16/10/1992,,,,19.266
09:00:00 17/10/1992,,,,19.971
09:00:00 18/10/1992,,,,20.19
09:00:00 19/10/1992,,,,19.025
09:00:00 20/10/1992,,,,18.217
09:00:00 21/10/1992,,,,17.559
09:00:00 22/10/1992,,,,17.346
09:00:00 23/10/1992,,,,17.696
09:00:00 24/10/1992,,,,18.354
09:00:00 25/10/1992,,,,19.24
09:00:00 26/10/1992,,,,19.655
09:00:00 27/10/1992,,,,19.779
09:00:00 28/10/1992,,,,
09:00:00 29/10/1992,,,,
09:00:00 30/10/1992,,,,
09:00:00 31/10/1992,,,,
09:00:00 01/11/1992,,,,
09:00:00 02/11/1992,,,,
09:00:00 03/11/1992,,,,
09:00:00 04/11/1992,,,,
09:00:00 05/11/1992,,,,
09:00:00 06/11/1992,,,,
09:00:00 07/11/1992,,,,
09:00:00 08/11/1992,,,,
09:00:00 09/11/1992,,,,
09:00:00 10/11/1992,,,,
09:00:00 11/11/1992,,,,
09:00:00 12/11/1992,,,,
09:00:00 13/11/1992,,,,
09:00:00 14/11/1992,,,,
09:00:00 15/11/1992,,,,
09:00:00 16/11/1992,,,,
09:00:00 17/11/1992,,,,
09:00:00 18/11/1992,,,,
09:00:00 19/11/1992,,,,
09:00:00 20/11/1992,,,,
09:00:00 21/11/1992,,,,
09:00:00 22/11/1992,,,,
09:00:00 23/11/1992,,,,
09:00:00 24/11/1992,,,,
09:00:00 25/11/1992,,,,
09:00:00 26/11/1992,,,,
09:00:00 27/11/1992,,,,
09:00:00 28/11/1992,,,,19.746
09:00:00 29/11/1992,,,,19.724
09:00:00 30/11/1992,,,,19.709
09:00:00 01/12/1992,,,,19.992
09:00:00 02/12/1992,,,,20.662
09:00:00 03/12/1992,,,,20.766
09:00:00 04/12/1992,,,,20.694
09:00:00 05/12/1992,,,,20.66
09:00:00 06/12/1992,,,,20.724
09:00:00 07/12/1992,,,,20.618
09:00:00 08/12/1992,,,,20.704
09:00:00 09/12/1992,,,,21.096
09:00:00 10/12/1992,,,,21.779
09:00:00 11/12/1992,,,,22.653
09:00:00 12/12/1992,,,,22.925
09:00:00 13/12/1992,,,,23.312
09:00:00 14/12/1992,,,,23.293
09:00:00 15/12/1992,,,,22.948
09:00:00 16/12/1992,,,,22.108
09:00:00 17/12/1992,,,,21.508
09:00:00 18/12/1992,,,,20.921
09:00:00 19/12/1992,,,,20.559
09:00:00 20/12/1992,,,,20.609
09:00:00 21/12/1992,,,,21.035
09:00:00 22/12/1992,,,,22.008
09:00:00 23/12/1992,,,,23.117
09:00:00 24/12/1992,,,,24.186
09:00:00 25/12/1992,,,,24.428
09:00:00 26/12/1992,,,,23.718
09:00:00 27/12/1992,,,,23.375
09:00:00 28/12/1992,,,,22.878
09:00:00 29/12/1992,,,,22.077
09:00:00 30/12/1992,,,,22.421
09:00:00 31/12/1992,,,,23.292
09:00:00 01/01/1993,,,,24.29
09:00:00 02/01/1993,,,,25.121
09:00:00 03/01/1993,,,,25.727
09:00:00 04/01/1993,,,,25.2
09:00:00 05/01/1993,,,,24.187
09:00:00 06/01/1993,,,,23.358
09:00:00 07/01/1993,,,,22.68
09:00:00 08/01/1993,,,,22.208
09:00:00 09/01/1993,,,,22.147
09:00:00 10/01/1993,,,,22.479
09:00:00 11/01/1993,,,,22.496
09:00:00 12/01/1993,,,,22.399
09:00:00 13/01/1993,,,,21.822
09:00:00 14/01/1993,,,,21.833
09:00:00 15/01/1993,,,,22.138
09:00:00 16/01/1993,,,,22.641
09:00:00 17/01/1993,,,,22.641
09:00:00 18/01/1993,,,,22.808
09:00:00 19/01/1993,,,,22.661
09:00:00 20/01/1993,,,,20.629
09:00:00 21/01/1993,,,,23.759
09:00:00 22/01/1993,,,,17.381
09:00:00 23/01/1993,,,,19.414
09:00:00 24/01/1993,,,,21.958
09:00:00 25/01/1993,,,,17.411
09:00:00 26/01/1993,,,,16.814
09:00:00 27/01/1993,,,,19.544
09:00:00 28/01/1993,,,,16.294
09:00:00 29/01/1993,,,,18.553
09:00:00 30/01/1993,,,,26.448
09:00:00 31/01/1993,,,,26.317
09:00:00 01/02/1993,,,,26.98
09:00:00 02/02/1993,,,,27.696
09:00:00 03/02/1993,,,,
09:00:00 04/02/1993,,,,
09:00:00 05/02/1993,,,,
09:00:00 06/02/1993,,,,
09:00:00 07/02/1993,,,,
09:00:00 08/02/1993,,,,
09:00:00 09/02/1993,,,,
09:00:00 10/02/1993,,,,
09:00:00 11/02/1993,,,,
09:00:00 12/02/1993,,,,
09:00:00 13/02/1993,,,,
09:00:00 14/02/1993,,,,
09:00:00 15/02/1993,,,,
09:00:00 16/02/1993,,,,
09:00:00 17/02/1993,,,,
09:00:00 18/02/1993,,,,
09:00:00 19/02/1993,,,,
09:00:00 20/02/1993,,,,
09:00:00 21/02/1993,,,,
09:00:00 22/02/1993,,,,
09:00:00 23/02/1993,,,,
09:00:00 24/02/1993,,,,
09:00:00 25/02/1993,,,,
09:00:00 26/02/1993,,,,22.795
09:00:00 27/02/1993,,,,22.642
09:00:00 28/02/1993,,,,22.453
09:00:00 01/03/1993,,,,21.85
09:00:00 02/03/1993,,,,21.095
09:00:00 03/03/1993,,,,17.67
09:00:00 04/03/1993,,,,14.118
09:00:00 05/03/1993,,,,13.258
09:00:00 06/03/1993,,,,
09:00:00 07/03/1993,,,,
09:00:00 08/03/1993,,,,
09:00:00 09/03/1993,,,,
09:00:00 10/03/1993,,,,
09:00:00 11/03/1993,,,,
09:00:00 12/03/1993,,,,
09:00:00 13/03/1993,,,,
09:00:00 14/03/1993,,,,
09:00:00 15/03/1993,,,,
09:00:00 16/03/1993,,,,
09:00:00 17/03/1993,,,,
09:00:00 18/03/1993,,,,
09:00:00 19/03/1993,,,,
09:00:00 20/03/1993,,,,
09:00:00 21/03/1993,,,,23.188
09:00:00 22/03/1993,,,,23.084
09:00:00 23/03/1993,,,,22.366
09:00:00 24/03/1993,,,,22.4
09:00:00 25/03/1993,,,,22.149
09:00:00 26/03/1993,,,,21.939
09:00:00 27/03/1993,,,,21.984
09:00:00 28/03/1993,,,,21.688
09:00:00 29/03/1993,,,,21.188
09:00:00 30/03/1993,,,,20.474
09:00:00 31/03/1993,,,,20.254
09:00:00 01/04/1993,,,,20.226
09:00:00 02/04/1993,,,,20.245
09:00:00 03/04/1993,,,,19.85
09:00:00 04/04/1993,,,,19.592
09:00:00 05/04/1993,,,,19.491
09:00:00 06/04/1993,,,,19.333
09:00:00 07/04/1993,,,,19.013
09:00:00 08/04/1993,,,,18.729
09:00:00 09/04/1993,,,,18.163
09:00:00 10/04/1993,,,,17.995
09:00:00 11/04/1993,,,,17.963
09:00:00 12/04/1993,,,,18.238
09:00:00 13/04/1993,,,,18.641
09:00:00 14/04/1993,,,,18.775
09:00:00 15/04/1993,,,,18.653
09:00:00 16/04/1993,,,,18.463
09:00:00 17/04/1993,,,,18.351
09:00:00 18/04/1993,,,,18.396
09:00:00 19/04/1993,,,,18.483
09:00:00 20/04/1993,,,,18.563
09:00:00 21/04/1993,,,,18.691
09:00:00 22/04/1993,,,,18.829
09:00:00 23/04/1993,,,,18.975
09:00:00 24/04/1993,,,,18.791
09:00:00 25/04/1993,,,,18.521
09:00:00 26/04/1993,,,,18.129
09:00:00 27/04/1993,,,,17.905
09:00:00 28/04/1993,,,,17.617
09:00:00 29/04/1993,,,,17.35
09:00:00 30/04/1993,,,,17.038
09:00:00 01/05/1993,,,,16.967
09:00:00 02/05/1993,,,,17.091
09:00:00 03/05/1993,,,,17.145
09:00:00 04/05/1993,,,,16.921
09:00:00 05/05/1993,,,,16.488
09:00:00 06/05/1993,,,,16.094
09:00:00 07/05/1993,,,,15.642
09:00:00 08/05/1993,,,,15.589
09:00:00 09/05/1993,,,,15.663
09:00:00 10/05/1993,,,,15.65
09:00:00 11/05/1993,,,,15.633
09:00:00 12/05/1993,,,,15.679
09:00:00 13/05/1993,,,,15.626
09:00:00 14/05/1993,,,,15.445
09:00:00 15/05/1993,,,,14.924
09:00:00 16/05/1993,,,,14.192
09:00:00 17/05/1993,,,,13.583
09:00:00 18/05/1993,,,,13.338
09:00:00 19/05/1993,,,,13.226
09:00:00 20/05/1993,,,,13.195
09:00:00 21/05/1993,,,,13.224
09:00:00 22/05/1993,,,,13.267
09:00:00 23/05/1993,,,,13.196
09:00:00 24/05/1993,,,,13.003
09:00:00 25/05/1993,,,,12.826
09:00:00 26/05/1993,,,,12.766
09:00:00 27/05/1993,,,,12.642
09:00:00 28/05/1993,,,,12.429
09:00:00 29/05/1993,,,,12.238
09:00:00 30/05/1993,,,,12.204
09:00:00 31/05/1993,,,,12.276
09:00:00 01/06/1993,,,,12.171
09:00:00 02/06/1993,,,,12.021
09:00:00 03/06/1993,,,,11.879
09:00:00 04/06/1993,,,,11.658
09:00:00 05/06/1993,,,,11.349
09:00:00 06/06/1993,,,,11.117
09:00:00 07/06/1993,,,,11.071
09:00:00 08/06/1993,,,,10.954
09:00:00 09/06/1993,,,,10.97
09:00:00 10/06/1993,,,,11.241
09:00:00 11/06/1993,,,,11.267
09:00:00 12/06/1993,,,,11.186
09:00:00 13/06/1993,,,,10.689
09:00:00 14/06/1993,,,,10.508
09:00:00 15/06/1993,,,,10.256
09:00:00 16/06/1993,,,,10.088
09:00:00 17/06/1993,,,,10.063
09:00:00 18/06/1993,,,,10.2
09:00:00 19/06/1993,,,,10.342
09:00:00 20/06/1993,,,,10.492
09:00:00 21/06/1993,,,,10.77
09:00:00 22/06/1993,,,,10.987
09:00:00 23/06/1993,,,,11.052
09:00:00 24/06/1993,,,,10.932
09:00:00 25/06/1993,,,,10.744
09:00:00 26/06/1993,,,,10.605
09:00:00 27/06/1993,,,,10.479
09:00:00 28/06/1993,,,,10.304
09:00:00 29/06/1993,,,,10.199
09:00:00 30/06/1993,,,,10.151
09:00:00 01/07/1993,,,,10.263
09:00:00 02/07/1993,,,,10.374
09:00:00 03/07/1993,,,,10.555
09:00:00 04/07/1993,,,,10.663
09:00:00 05/07/1993,,,,10.402
09:00:00 06/07/1993,,,,10.187
09:00:00 07/07/1993,,,,10.051
09:00:00 08/07/1993,,,,9.987
09:00:00 09/07/1993,,,,9.784
09:00:00 10/07/1993,,,,9.846
09:00:00 11/07/1993,,,,10.108
09:00:00 12/07/1993,,,,10.17
09:00:00 13/07/1993,,,,10.067
09:00:00 14/07/1993,,,,9.997
09:00:00 15/07/1993,,,,9.996
09:00:00 16/07/1993,,,,10.033
09:00:00 17/07/1993,,,,10.017
09:00:00 18/07/1993,,,,9.971
09:00:00 19/07/1993,,,,9.825
09:00:00 20/07/1993,,,,9.671
09:00:00 21/07/1993,,,,9.567
09:00:00 22/07/1993,,,,9.583
09:00:00 23/07/1993,,,,9.613
09:00:00 24/07/1993,,,,9.682
09:00:00 25/07/1993,,,,9.995
09:00:00 26/07/1993,,,,10.267
09:00:00 27/07/1993,,,,10.254
09:00:00 28/07/1993,,,,10.229
09:00:00 29/07/1993,,,,10.317
09:00:00 30/07/1993,,,,10.346
09:00:00 31/07/1993,,,,10.283
09:00:00 01/08/1993,,,,10.4
09:00:00 02/08/1993,,,,10.445
09:00:00 03/08/1993,,,,10.33
09:00:00 04/08/1993,,,,10.126
09:00:00 05/08/1993,,,,10.049
09:00:00 06/08/1993,,,,9.548
09:00:00 07/08/1993,,,,9.632
09:00:00 08/08/1993,,,,9.793
09:00:00 09/08/1993,,,,10.124
09:00:00 10/08/1993,,,,10.341
09:00:00 11/08/1993,,,,10.186
09:00:00 12/08/1993,,,,10.316
09:00:00 13/08/1993,,,,10.367
09:00:00 14/08/1993,,,,10.37
09:00:00 15/08/1993,,,,10.654
09:00:00 16/08/1993,,,,10.801
09:00:00 17/08/1993,,,,10.846
09:00:00 18/08/1993,,,,10.875
09:00:00 19/08/1993,,,,11.075
09:00:00 20/08/1993,,,,11.263
09:00:00 21/08/1993,,,,11.413
09:00:00 22/08/1993,,,,11.596
09:00:00 23/08/1993,,,,11.725
09:00:00 24/08/1993,,,,11.842
09:00:00 25/08/1993,,,,11.896
09:00:00 26/08/1993,,,,11.995
09:00:00 27/08/1993,,,,12.123
09:00:00 28/08/1993,,,,12.068
09:00:00 29/08/1993,,,,12.529
09:00:00 30/08/1993,,,,12.875
09:00:00 31/08/1993,,,,13.096
09:00:00 01/09/1993,,,,13.582
09:00:00 02/09/1993,,,,13.517
09:00:00 03/09/1993,,,,13.276
09:00:00 04/09/1993,,,,13.163
09:00:00 05/09/1993,,,,13.142
09:00:00 06/09/1993,,,,13.236
09:00:00 07/09/1993,,,,13.409
09:00:00 08/09/1993,,,,13.874
09:00:00 09/09/1993,,,,13.934
09:00:00 10/09/1993,,,,13.791
09:00:00 11/09/1993,,,,13.481
09:00:00 12/09/1993,,,,13.45
09:00:00 13/09/1993,,,,13.292
09:00:00 14/09/1993,,,,13.266
09:00:00 15/09/1993,,,,13.051
09:00:00 16/09/1993,,,,13.017
09:00:00 17/09/1993,,,,13.408
09:00:00 18/09/1993,,,,13.934
09:00:00 19/09/1993,,,,14.536
09:00:00 20/09/1993,,,,14.729
09:00:00 21/09/1993,,,,14.321
09:00:00 22/09/1993,,,,13.909
09:00:00 23/09/1993,,,,13.959
09:00:00 24/09/1993,,,,14.408
09:00:00 25/09/1993,,,,15.058
09:00:00 26/09/1993,,,,15.567
09:00:00 27/09/1993,,,,15.983
09:00:00 28/09/1993,,,,16.301
09:00:00 29/09/1993,,,,16.807
09:00:00 30/09/1993,,,,16.967
09:00:00 01/10/1993,,,,17.432
09:00:00 02/10/1993,,,,17.51
09:00:00 03/10/1993,,,,17.56
09:00:00 04/10/1993,,,,17.467
09:00:00 05/10/1993,,,,17.15
09:00:00 06/10/1993,,,,16.664
09:00:00 07/10/1993,,,,17.138
09:00:00 08/10/1993,,,,17.825
09:00:00 09/10/1993,,,,18.344
09:00:00 10/10/1993,,,,17.568
09:00:00 11/10/1993,,,,16.558
09:00:00 12/10/1993,,,,16.252
09:00:00 13/10/1993,,,,16.263
09:00:00 14/10/1993,,,,16.508
09:00:00 15/10/1993,,,,17.0
09:00:00 16/10/1993,,,,17.621
09:00:00 17/10/1993,,,,18.533
09:00:00 18/10/1993,,,,19.253
09:00:00 19/10/1993,,,,18.676
09:00:00 20/10/1993,,,,17.834
09:00:00 21/10/1993,,,,17.504
09:00:00 22/10/1993,,,,17.105
09:00:00 23/10/1993,,,,17.458
09:00:00 24/10/1993,,,,17.999
09:00:00 25/10/1993,,,,17.897
09:00:00 26/10/1993,,,,17.62
09:00:00 27/10/1993,,,,17.31
09:00:00 28/10/1993,,,,17.426
09:00:00 29/10/1993,,,,16.644
09:00:00 30/10/1993,,,,16.463
09:00:00 31/10/1993,,,,16.937
09:00:00 01/11/1993,,,,17.227
09:00:00 02/11/1993,,,,16.814
09:00:00 03/11/1993,,,,16.501
09:00:00 04/11/1993,,,,16.178
09:00:00 05/11/1993,,,,15.734
09:00:00 06/11/1993,,,,
09:00:00 07/11/1993,,,,
09:00:00 08/11/1993,,,,
09:00:00 09/11/1993,,,,
09:00:00 10/11/1993,,,,
09:00:00 11/11/1993,,,,
09:00:00 12/11/1993,,,,
09:00:00 13/11/1993,,,,
09:00:00 14/11/1993,,,,
09:00:00 15/11/1993,,,,
09:00:00 16/11/1993,,,,
09:00:00 17/11/1993,,,,
09:00:00 18/11/1993,,,,
09:00:00 19/11/1993,,,,
09:00:00 20/11/1993,,,,
09:00:00 21/11/1993,,,,
09:00:00 22/11/1993,,,,
09:00:00 23/11/1993,,,,
09:00:00 24/11/1993,,,,
09:00:00 25/11/1993,,,,
09:00:00 26/11/1993,,,,
09:00:00 27/11/1993,,,,
09:00:00 28/11/1993,,,,
09:00:00 29/11/1993,,,,
09:00:00 30/11/1993,,,,
09:00:00 01/12/1993,,,,
09:00:00 02/12/1993,,,,
09:00:00 03/12/1993,,,,
09:00:00 04/12/1993,,,,
09:00:00 05/12/1993,,,,
09:00:00 06/12/1993,,,,
09:00:00 07/12/1993,,,,
09:00:00 08/12/1993,,,,
09:00:00 09/12/1993,,,,
09:00:00 10/12/1993,,,,
09:00:00 11/12/1993,,,,
09:00:00 12/12/1993,,,,23.756
09:00:00 13/12/1993,,,,23.376
09:00:00 14/12/1993,,,,23.44
09:00:00 15/12/1993,,,,23.154
09:00:00 16/12/1993,,,,22.58
09:00:00 17/12/1993,,,,22.584
09:00:00 18/12/1993,,,,22.776
09:00:00 19/12/1993,,,,23.337
09:00:00 20/12/1993,,,,23.913
09:00:00 21/12/1993,,,,24.42
09:00:00 22/12/1993,,,,23.527
09:00:00 23/12/1993,,,,22.807
09:00:00 24/12/1993,,,,21.861
09:00:00 25/12/1993,,,,21.888
09:00:00 26/12/1993,,,,21.839
09:00:00 27/12/1993,,,,20.726
09:00:00 28/12/1993,,,,19.442
09:00:00 29/12/1993,,,,19.028
09:00:00 30/12/1993,,,,19.734
09:00:00 31/12/1993,,,,20.379
09:00:00 01/01/1994,,,,20.791
09:00:00 02/01/1994,,,,21.033
09:00:00 03/01/1994,,,,20.98
09:00:00 04/01/1994,,,,20.671
09:00:00 05/01/1994,,,,20.407
09:00:00 06/01/1994,,,,20.162
09:00:00 07/01/1994,,,,19.792
09:00:00 08/01/1994,,,,19.69
09:00:00 09/01/1994,,,,19.115
09:00:00 10/01/1994,,,,19.218
09:00:00 11/01/1994,,,,19.896
09:00:00 12/01/1994,,,,20.488
09:00:00 13/01/1994,,,,21.392
09:00:00 14/01/1994,,,,22.032
09:00:00 15/01/1994,,,,21.639
09:00:00 16/01/1994,,,,22.026
09:00:00 17/01/1994,,,,21.532
09:00:00 18/01/1994,,,,21.666
09:00:00 19/01/1994,,,,21.705
09:00:00 20/01/1994,,,,22.058
09:00:00 21/01/1994,,,,22.098
09:00:00 22/01/1994,,,,21.757
09:00:00 23/01/1994,,,,22.063
09:00:00 24/01/1994,,,,22.78
09:00:00 25/01/1994,,,,23.892
09:00:00 26/01/1994,,,,24.798
09:00:00 27/01/1994,,,,24.726
09:00:00 28/01/1994,,,,24.227
09:00:00 29/01/1994,,,,24.454
09:00:00 30/01/1994,,,,24.826
09:00:00 31/01/1994,,,,25.02
09:00:00 01/02/1994,,,,24.93
09:00:00 02/02/1994,,,,25.637
09:00:00 03/02/1994,,,,26.167
09:00:00 04/02/1994,,,,26.691
09:00:00 05/02/1994,,,,26.692
09:00:00 06/02/1994,,,,26.974
09:00:00 07/02/1994,,,,26.905
09:00:00 08/02/1994,,,,27.401
09:00:00 09/02/1994,,,,26.845
09:00:00 10/02/1994,,,,27.341
09:00:00 11/02/1994,,,,25.785
09:00:00 12/02/1994,,,,24.655
09:00:00 13/02/1994,,,,23.81
09:00:00 14/02/1994,,,,24.349
09:00:00 15/02/1994,,,,24.233
09:00:00 16/02/1994,,,,24.383
09:00:00 17/02/1994,,,,24.105
09:00:00 18/02/1994,,,,24.17
09:00:00 19/02/1994,,,,23.817
09:00:00 20/02/1994,,,,23.838
09:00:00 21/02/1994,,,,24.042
09:00:00 22/02/1994,,,,24.341
09:00:00 23/02/1994,,,,24.792
09:00:00 24/02/1994,,,,25.37
09:00:00 25/02/1994,,,,25.389
09:00:00 26/02/1994,,,,25.826
09:00:00 27/02/1994,,,,25.963
09:00:00 28/02/1994,,,,24.852
09:00:00 01/03/1994,,,,23.689
09:00:00 02/03/1994,,,,23.524
09:00:00 03/03/1994,,,,23.426
09:00:00 04/03/1994,,,,23.286
09:00:00 05/03/1994,,,,23.154
09:00:00 06/03/1994,,,,23.009
09:00:00 07/03/1994,,,,22.98
09:00:00 08/03/1994,,,,23.166
09:00:00 09/03/1994,,,,22.715
09:00:00 10/03/1994,,,,22.723
09:00:00 11/03/1994,,,,21.947
09:00:00 12/03/1994,,,,21.282
09:00:00 13/03/1994,,,,20.785
09:00:00 14/03/1994,,,,20.667
09:00:00 15/03/1994,,,,20.711
09:00:00 16/03/1994,,,,20.505
09:00:00 17/03/1994,,,,20.146
09:00:00 18/03/1994,,,,20.147
09:00:00 19/03/1994,,,,20.308
09:00:00 20/03/1994,,,,20.571
09:00:00 21/03/1994,,,,20.876
09:00:00 22/03/1994,,,,21.199
09:00:00 23/03/1994,,,,21.392
09:00:00 24/03/1994,,,,21.467
09:00:00 25/03/1994,,,,21.574
09:00:00 26/03/1994,,,,21.729
09:00:00 27/03/1994,,,,21.7
09:00:00 28/03/1994,,,,21.649
09:00:00 29/03/1994,,,,21.668
09:00:00 30/03/1994,,,,21.904
09:00:00 31/03/1994,,,,22.135
09:00:00 01/04/1994,,,,21.547
09:00:00 02/04/1994,,,,21.026
09:00:00 03/04/1994,,,,21.009
09:00:00 04/04/1994,,,,20.995
09:00:00 05/04/1994,,,,20.977
09:00:00 06/04/1994,,,,20.089
09:00:00 07/04/1994,,,,19.567
09:00:00 08/04/1994,,,,19.393
09:00:00 09/04/1994,,,,19.44
09:00:00 10/04/1994,,,,18.684
09:00:00 11/04/1994,,,,17.626
09:00:00 12/04/1994,,,,17.064
09:00:00 13/04/1994,,,,17.175
09:00:00 14/04/1994,,,,
09:00:00 15/04/1994,,,,
09:00:00 16/04/1994,,,,17.742
09:00:00 17/04/1994,,,,18.157
09:00:00 18/04/1994,,,,18.171
09:00:00 19/04/1994,,,,17.903
09:00:00 20/04/1994,,,,17.693
09:00:00 21/04/1994,,,,17.579
09:00:00 22/04/1994,,,,17.346
09:00:00 23/04/1994,,,,17.271
09:00:00 24/04/1994,,,,17.138
09:00:00 25/04/1994,,,,17.117
09:00:00 26/04/1994,,,,17.095
09:00:00 27/04/1994,,,,17.213
09:00:00 28/04/1994,,,,17.475
09:00:00 29/04/1994,,,,17.408
09:00:00 30/04/1994,,,,17.068
09:00:00 01/05/1994,,,,16.796
09:00:00 02/05/1994,,,,16.67
09:00:00 03/05/1994,,,,16.479
09:00:00 04/05/1994,,,,15.947
09:00:00 05/05/1994,,,,15.745
09:00:00 06/05/1994,,,,15.688
09:00:00 07/05/1994,,,,15.712
09:00:00 08/05/1994,,,,15.67
09:00:00 09/05/1994,,,,15.42
09:00:00 10/05/1994,,,,15.22
09:00:00 11/05/1994,,,,14.876
09:00:00 12/05/1994,,,,14.546
09:00:00 13/05/1994,,,,14.295
09:00:00 14/05/1994,,,,13.954
09:00:00 15/05/1994,,,,13.683
09:00:00 16/05/1994,,,,13.382
09:00:00 17/05/1994,,,,13.43
09:00:00 18/05/1994,,,,13.395
09:00:00 19/05/1994,,,,13.169
09:00:00 20/05/1994,,,,13.051
09:00:00 21/05/1994,,,,13.033
09:00:00 22/05/1994,,,,12.784
09:00:00 23/05/1994,,,,12.604
09:00:00 24/05/1994,,,,12.55
09:00:00 25/05/1994,,,,12.554
09:00:00 26/05/1994,,,,12.188
09:00:00 27/05/1994,,,,12.254
09:00:00 28/05/1994,,,,12.417
09:00:00 29/05/1994,,,,12.405
09:00:00 30/05/1994,,,,12.31
09:00:00 31/05/1994,,,,12.24
09:00:00 01/06/1994,,,,11.97
09:00:00 02/06/1994,,,,11.83
09:00:00 03/06/1994,,,,11.713
09:00:00 04/06/1994,,,,11.874
09:00:00 05/06/1994,,,,11.983
09:00:00 06/06/1994,,,,11.822
09:00:00 07/06/1994,,,,12.148
09:00:00 08/06/1994,,,,12.371
09:00:00 09/06/1994,,,,12.055
09:00:00 10/06/1994,,,,11.751
09:00:00 11/06/1994,,,,11.346
09:00:00 12/06/1994,,,,11.307
09:00:00 13/06/1994,,,,11.288
09:00:00 14/06/1994,,,,11.263
09:00:00 15/06/1994,,,,11.308
09:00:00 16/06/1994,,,,11.196
09:00:00 17/06/1994,,,,11.296
09:00:00 18/06/1994,,,,11.349
09:00:00 19/06/1994,,,,11.417
09:00:00 20/06/1994,,,,11.459
09:00:00 21/06/1994,,,,11.446
09:00:00 22/06/1994,,,,11.57
09:00:00 23/06/1994,,,,11.613
09:00:00 24/06/1994,,,,11.508
09:00:00 25/06/1994,,,,11.513
09:00:00 26/06/1994,,,,11.301
09:00:00 27/06/1994,,,,11.433
09:00:00 28/06/1994,,,,11.329
09:00:00 29/06/1994,,,,11.026
09:00:00 30/06/1994,,,,10.845
09:00:00 01/07/1994,,,,10.413
09:00:00 02/07/1994,,,,10.158
09:00:00 03/07/1994,,,,10.017
09:00:00 04/07/1994,,,,10.174
09:00:00 05/07/1994,,,,10.371
09:00:00 06/07/1994,,,,10.674
09:00:00 07/07/1994,,,,10.589
09:00:00 08/07/1994,,,,10.592
09:00:00 09/07/1994,,,,10.454
09:00:00 10/07/1994,,,,10.338
09:00:00 11/07/1994,,,,10.374
09:00:00 12/07/1994,,,,10.421
09:00:00 13/07/1994,,,,10.366
09:00:00 14/07/1994,,,,10.367
09:00:00 15/07/1994,,,,10.367
09:00:00 16/07/1994,,,,10.437
09:00:00 17/07/1994,,,,10.339
09:00:00 18/07/1994,,,,10.104
09:00:00 19/07/1994,,,,10.058
09:00:00 20/07/1994,,,,10.113
09:00:00 21/07/1994,,,,9.933
09:00:00 22/07/1994,,,,9.958
09:00:00 23/07/1994,,,,9.795
09:00:00 24/07/1994,,,,9.543
09:00:00 25/07/1994,,,,9.42
09:00:00 26/07/1994,,,,9.488
09:00:00 27/07/1994,,,,9.584
09:00:00 28/07/1994,,,,9.825
09:00:00 29/07/1994,,,,10.0
09:00:00 30/07/1994,,,,9.927
09:00:00 31/07/1994,,,,9.307
09:00:00 01/08/1994,,,,9.229
09:00:00 02/08/1994,,,,9.249
09:00:00 03/08/1994,,,,9.39
09:00:00 04/08/1994,,,,9.265
09:00:00 05/08/1994,,,,9.275
09:00:00 06/08/1994,,,,9.251
09:00:00 07/08/1994,,,,9.499
09:00:00 08/08/1994,,,,9.337
09:00:00 09/08/1994,,,,8.849
09:00:00 10/08/1994,,,,8.863
09:00:00 11/08/1994,,,,8.853
09:00:00 12/08/1994,,,,8.72
09:00:00 13/08/1994,,,,8.972
09:00:00 14/08/1994,,,,9.196
09:00:00 15/08/1994,,,,9.191
09:00:00 16/08/1994,,,,9.27
09:00:00 17/08/1994,,,,9.509
09:00:00 18/08/1994,,,,9.7
09:00:00 19/08/1994,,,,9.879
09:00:00 20/08/1994,,,,9.851
09:00:00 21/08/1994,,,,9.958
09:00:00 22/08/1994,,,,9.979
09:00:00 23/08/1994,,,,10.258
09:00:00 24/08/1994,,,,10.505
09:00:00 25/08/1994,,,,10.65
09:00:00 26/08/1994,,,,11.025
09:00:00 27/08/1994,,,,11.367
09:00:00 28/08/1994,,,,11.737
09:00:00 29/08/1994,,,,11.999
09:00:00 30/08/1994,,,,12.059
09:00:00 31/08/1994,,,,12.146
09:00:00 01/09/1994,,,,12.262
09:00:00 02/09/1994,,,,12.342
09:00:00 03/09/1994,,,,12.774
09:00:00 04/09/1994,,,,13.369
09:00:00 05/09/1994,,,,13.43
09:00:00 06/09/1994,,,,13.575
09:00:00 07/09/1994,,,,13.414
09:00:00 08/09/1994,,,,13.479
09:00:00 09/09/1994,,,,13.597
09:00:00 10/09/1994,,,,13.65
09:00:00 11/09/1994,,,,13.695
09:00:00 12/09/1994,,,,13.734
09:00:00 13/09/1994,,,,13.713
09:00:00 14/09/1994,,,,14.045
09:00:00 15/09/1994,,,,14.172
09:00:00 16/09/1994,,,,14.441
09:00:00 17/09/1994,,,,14.354
09:00:00 18/09/1994,,,,14.395
09:00:00 19/09/1994,,,,14.109
09:00:00 20/09/1994,,,,13.725
09:00:00 21/09/1994,,,,13.387
09:00:00 22/09/1994,,,,13.63
09:00:00 23/09/1994,,,,13.82
09:00:00 24/09/1994,,,,14.033
09:00:00 25/09/1994,,,,14.093
09:00:00 26/09/1994,,,,14.195
09:00:00 27/09/1994,,,,13.68
09:00:00 28/09/1994,,,,13.433
09:00:00 29/09/1994,,,,13.633
09:00:00 30/09/1994,,,,13.743
09:00:00 01/10/1994,,,,13.973
09:00:00 02/10/1994,,,,14.112
09:00:00 03/10/1994,,,,14.177
09:00:00 04/10/1994,,,,14.527
09:00:00 05/10/1994,,,,14.63
09:00:00 06/10/1994,,,,14.655
09:00:00 07/10/1994,,,,14.766
09:00:00 08/10/1994,,,,14.355
09:00:00 09/10/1994,,,,14.121
09:00:00 10/10/1994,,,,14.064
09:00:00 11/10/1994,,,,14.72
09:00:00 12/10/1994,,,,15.176
09:00:00 13/10/1994,,,,15.499
09:00:00 14/10/1994,,,,15.833
09:00:00 15/10/1994,,,,16.468
09:00:00 16/10/1994,,,,17.176
09:00:00 17/10/1994,,,,17.932
09:00:00 18/10/1994,,,,18.246
09:00:00 19/10/1994,,,,18.409
09:00:00 20/10/1994,,,,18.436
09:00:00 21/10/1994,,,,18.255
09:00:00 22/10/1994,,,,18.421
09:00:00 23/10/1994,,,,18.721
09:00:00 24/10/1994,,,,19.137
09:00:00 25/10/1994,,,,19.489
09:00:00 26/10/1994,,,,19.583
09:00:00 27/10/1994,,,,19.766
09:00:00 28/10/1994,,,,20.282
09:00:00 29/10/1994,,,,20.013
09:00:00 30/10/1994,,,,19.676
09:00:00 31/10/1994,,,,19.717
09:00:00 01/11/1994,,,,19.764
09:00:00 02/11/1994,,,,19.086
09:00:00 03/11/1994,,,,18.528
09:00:00 04/11/1994,,,,18.819
09:00:00 05/11/1994,,,,18.704
09:00:00 06/11/1994,,,,18.45
09:00:00 07/11/1994,,,,17.908
09:00:00 08/11/1994,,,,17.431
09:00:00 09/11/1994,,,,17.722
09:00:00 10/11/1994,,,,18.434
09:00:00 11/11/1994,,,,19.345
09:00:00 12/11/1994,,,,19.918
09:00:00 13/11/1994,,,,19.625
09:00:00 14/11/1994,,,,19.028
09:00:00 15/11/1994,,,,19.167
09:00:00 16/11/1994,,,,19.358
09:00:00 17/11/1994,,,,19.763
09:00:00 18/11/1994,,,,20.145
09:00:00 19/11/1994,,,,20.526
09:00:00 20/11/1994,,,,21.273
09:00:00 21/11/1994,,,,20.766
09:00:00 22/11/1994,,,,20.456
09:00:00 23/11/1994,,,,20.755